This demonstration page uses our WeatherBlox Daily Observations layout. Learn more.

Left ArrowRight Arrow

Hourly Observations for January 18, 2022

Temp ( °F °C ) Dew Point ( °F °C ) Humidity (%) Winds ( mph kmh ) Pressure ( in mb ) Visibility ( mi km ) Precip ( " mm )
12:53 am 00:53 Mostly Cloudy 50 10 27 -2.8 41 41 S 9 15 30.00 1016 10 16 0.00 0.00
1:53 am 01:53 Mostly Cloudy 48 8.9 27 -2.8 44 44 SSE 8 13 29.98 1015 10 16 0.00 0.00
2:53 am 02:53 Mostly Cloudy 48 8.9 26 -3.3 42 42 S 8 13 29.97 1015 10 16 0.00 0.00
3:53 am 03:53 Mostly Cloudy 47 8.3 27 -2.8 46 46 S 7 11 29.96 1015 10 16 0.00 0.00
4:53 am 04:53 Mostly Cloudy 48 8.9 30 -1.1 50 50 S 12 19 29.94 1014 10 16 0.00 0.00
5:53 am 05:53 Partly Cloudy 47 8.3 34 1.1 61 61 SSE 12 19 29.95 1014 10 16 0.00 0.00
6:53 am 06:53 Clear 45 7.2 37 2.8 74 74 SSE 15 24 29.96 1015 10 16 0.00 0.00
7:53 am 07:53 Mostly Sunny 45 7.2 37 2.8 74 74 SSE 13 20 29.96 1015 10 16 0.00 0.00
8:53 am 08:53 Partly Cloudy 46 7.8 39 3.9 77 77 SSE 15 24 29.95 1014 10 16 0.00 0.00
9:53 am 09:53 Mostly Cloudy 51 10.6 42 5.6 71 71 S 15 24 29.94 1014 10 16 0.00 0.00
10:53 am 10:53 Mostly Sunny 60 15.6 46 7.8 60 60 S 16 26 29.92 1013 10 16 0.00 0.00
11:53 am 11:53 Mostly Sunny 65 18.3 46 7.8 51 51 S 15 24 29.89 1012 10 16 0.00 0.00
12:53 pm 12:53 Mostly Sunny 67 19.4 46 7.8 47 47 S 14 22 29.84 1010 10 16 0.00 0.00
1:53 pm 13:53 Mostly Sunny 70 21.1 46 7.8 42 42 S 15 24 29.80 1009 10 16 0.00 0.00
2:53 pm 14:53 Mostly Sunny 72 22.2 46 7.8 40 40 S 20 31 29.77 1008 10 16 0.00 0.00
3:53 pm 15:53 Mostly Sunny 72 22.2 46 7.8 40 40 S 16 26 29.76 1008 10 16 0.00 0.00
4:53 pm 16:53 Mostly Sunny 71 21.7 47 8.3 42 42 S 16 26 29.76 1008 10 16 0.00 0.00
5:53 pm 17:53 Mostly Clear 69 20.6 47 8.3 45 45 S 10 17 29.77 1008 10 16 0.00 0.00
6:53 pm 18:53 Clear 67 19.4 47 8.3 49 49 S 10 17 29.79 1009 10 16 0.00 0.00
7:53 pm 19:53 Mostly Clear 65 18.3 46 7.8 51 51 S 10 17 29.80 1009 10 16 0.00 0.00
8:53 pm 20:53 Clear 65 18.3 46 7.8 51 51 S 10 17 29.80 1009 10 16 0.00 0.00
9:53 pm 21:53 Clear 64 17.8 47 8.3 54 54 S 15 24 29.80 1009 10 16 0.00 0.00
10:53 pm 22:53 Partly Cloudy 62 16.7 47 8.3 58 58 S 13 20 29.82 1010 10 16 0.00 0.00
11:53 pm 23:53 Partly Cloudy 62 16.7 49 9.4 62 62 S 10 17 29.82 1010 10 16 0.00 0.00

Powered by AerisWeather